| time (UTC) | temp F | wind direction | speed knots | gust knots | rain 1hr in | rain 24hr in | rain mn in | humidity % | barometer mb |
| 20260509164524 | 56 | 225 | 0.0 | 0.9 | 0.00 | 0.00 | 0.00 | 88 | 1025.0 |
| 20260509164023 | 56 | 225 | 0.0 | 0.9 | 0.00 | 0.00 | 0.00 | 88 | 1025.0 |
| 20260509163528 | 56 | 225 | 0.0 | 0.9 | 0.00 | 0.00 | 0.00 | 88 | 1025.0 |
| 20260509163035 | 56 | 225 | 0.0 | 0.0 | 0.00 | 0.00 | 0.00 | 87 | 1025.0 |
| 20260509162527 | 56 | 225 | 0.0 | 0.0 | 0.00 | 0.00 | 0.00 | 88 | 1025.1 |
| 20260509162024 | 56 | 225 | 0.0 | 0.0 | 0.00 | 0.00 | 0.00 | 88 | 1025.1 |
| 20260509161529 | 56 | 225 | 0.0 | 0.0 | 0.00 | 0.00 | 0.00 | 88 | 1025.1 |
| 20260509161024 | 56 | 225 | 0.0 | 0.0 | 0.00 | 0.00 | 0.00 | 88 | 1025.1 |
| 20260509160525 | 56 | 225 | 0.0 | 0.0 | 0.00 | 0.00 | 0.00 | 88 | 1025.1 |
| 20260509160025 | 56 | 225 | 0.0 | 0.0 | 0.00 | 0.00 | 0.00 | 88 | 1025.1 |
| 20260509155521 | 56 | 225 | 0.0 | 0.0 | 0.00 | 0.00 | 0.00 | 87 | 1025.1 |
| 20260509155019 | 56 | 225 | 0.0 | 1.7 | 0.00 | 0.00 | 0.00 | 87 | 1025.1 |
| 20260509154520 | 56 | 225 | 0.0 | 1.7 | 0.00 | 0.00 | 0.00 | 87 | 1025.1 |
| 20260509154020 | 56 | 225 | 0.0 | 1.7 | 0.00 | 0.00 | 0.00 | 87 | 1025.1 |
| 20260509153519 | 57 | 225 | 0.0 | 0.9 | 0.00 | 0.00 | 0.00 | 87 | 1025.1 |
| 20260509153033 | 57 | 225 | 0.0 | 0.9 | 0.00 | 0.00 | 0.00 | 87 | 1025.1 |
| 20260509152519 | 57 | 225 | 0.0 | 0.9 | 0.00 | 0.00 | 0.00 | 87 | 1025.1 |
| 20260509152019 | 57 | 225 | 0.0 | 0.9 | 0.00 | 0.00 | 0.00 | 86 | 1025.1 |
| 20260509151519 | 57 | 225 | 0.0 | 0.9 | 0.00 | 0.00 | 0.00 | 86 | 1025.1 |
| 20260509151021 | 57 | 225 | 0.0 | 1.7 | 0.00 | 0.00 | 0.00 | 87 | 1025.1 |
| 20260509150523 | 57 | 225 | 0.0 | 1.7 | 0.00 | 0.00 | 0.00 | 87 | 1025.1 |
| 20260509150027 | 57 | 225 | 0.0 | 0.9 | 0.00 | 0.00 | 0.00 | 87 | 1025.1 |
| 20260509145520 | 56 | 225 | 0.0 | 0.9 | 0.00 | 0.00 | 0.00 | 86 | 1025.1 |
| 20260509145018 | 57 | 225 | 0.0 | 1.7 | 0.00 | 0.00 | 0.00 | 86 | 1025.1 |
| 20260509144517 | 57 | 225 | 0.0 | 1.7 | 0.00 | 0.00 | 0.00 | 86 | 1025.1 |
| 20260509144016 | 57 | 225 | 0.0 | 1.7 | 0.00 | 0.00 | 0.00 | 86 | 1025.1 |
| 20260509143516 | 57 | 225 | 0.0 | 1.7 | 0.00 | 0.00 | 0.00 | 85 | 1025.1 |
| 20260509143015 | 57 | 225 | 0.9 | 1.7 | 0.00 | 0.00 | 0.00 | 85 | 1025.1 |
| 20260509142514 | 57 | 225 | 0.0 | 1.7 | 0.00 | 0.00 | 0.00 | 85 | 1025.2 |
| 20260509142014 | 57 | 225 | 0.0 | 1.7 | 0.00 | 0.00 | 0.00 | 85 | 1025.1 |
| 20260509141514 | 57 | 225 | 0.0 | 1.7 | 0.00 | 0.00 | 0.00 | 85 | 1025.1 |
| 20260509141013 | 57 | 225 | 0.0 | 1.7 | 0.00 | 0.00 | 0.00 | 85 | 1025.1 |
| 20260509140512 | 57 | 225 | 0.9 | 1.7 | 0.00 | 0.00 | 0.00 | 85 | 1025.0 |
| 20260509140011 | 57 | 225 | 0.0 | 0.0 | 0.00 | 0.00 | 0.00 | 85 | 1025.0 |
| 20260509135511 | 57 | 225 | 0.0 | 0.0 | 0.00 | 0.00 | 0.00 | 85 | 1025.1 |
| 20260509135014 | 57 | 225 | 0.0 | 0.0 | 0.00 | 0.00 | 0.00 | 85 | 1025.1 |
| 20260509134510 | 57 | 225 | 0.0 | 0.9 | 0.00 | 0.00 | 0.00 | 85 | 1025.1 |
| 20260509134010 | 57 | 225 | 0.0 | 1.7 | 0.00 | 0.00 | 0.00 | 85 | 1025.2 |
| 20260509133510 | 57 | 225 | 0.0 | 1.7 | 0.00 | 0.00 | 0.00 | 86 | 1025.2 |
| 20260509133010 | 57 | 225 | 0.0 | 1.7 | 0.00 | 0.00 | 0.00 | 86 | 1025.2 |
| 20260509132510 | 57 | 225 | 0.0 | 0.9 | 0.00 | 0.00 | 0.00 | 86 | 1025.2 |
| 20260509132010 | 57 | 225 | 0.0 | 1.7 | 0.00 | 0.00 | 0.00 | 86 | 1025.2 |
| 20260509131509 | 57 | 225 | 0.0 | 1.7 | 0.00 | 0.00 | 0.00 | 87 | 1025.3 |
| 20260509131010 | 57 | 217 | 0.0 | 1.7 | 0.00 | 0.00 | 0.00 | 87 | 1025.3 |
| 20260509130509 | 57 | 217 | 0.0 | 0.9 | 0.00 | 0.00 | 0.00 | 88 | 1025.3 |
| 20260509130010 | 57 | 217 | 0.0 | 0.0 | 0.00 | 0.00 | 0.00 | 87 | 1025.2 |
| 20260509125516 | 56 | 217 | 0.0 | 0.0 | 0.00 | 0.00 | 0.00 | 87 | 1025.2 |
| 20260509125008 | 57 | 217 | 0.0 | 0.0 | 0.00 | 0.00 | 0.00 | 87 | 1025.3 |
| 20260509124508 | 57 | 217 | 0.0 | 0.0 | 0.00 | 0.00 | 0.00 | 87 | 1025.2 |
| 20260509124009 | 57 | 217 | 0.0 | 0.0 | 0.00 | 0.00 | 0.00 | 87 | 1025.3 |
| 20260509123509 | 57 | 217 | 0.0 | 0.0 | 0.00 | 0.00 | 0.00 | 87 | 1025.3 |
| 20260509123008 | 57 | 217 | 0.0 | 0.0 | 0.00 | 0.00 | 0.00 | 87 | 1025.3 |
| 20260509122507 | 57 | 217 | 0.0 | 0.0 | 0.00 | 0.00 | 0.00 | 86 | 1025.3 |
| 20260509122008 | 57 | 217 | 0.0 | 0.9 | 0.00 | 0.00 | 0.00 | 85 | 1025.3 |
| 20260509121509 | 58 | 217 | 0.0 | 0.9 | 0.00 | 0.00 | 0.00 | 85 | 1025.3 |
| 20260509121006 | 58 | 217 | 0.0 | 0.0 | 0.00 | 0.00 | 0.00 | 84 | 1025.4 |
| 20260509120506 | 58 | 217 | 0.0 | 0.9 | 0.00 | 0.00 | 0.00 | 84 | 1025.4 |
| 20260509120005 | 58 | 217 | 0.0 | 1.7 | 0.00 | 0.00 | 0.00 | 84 | 1025.4 |
| 20260509115505 | 58 | 217 | 0.0 | 0.9 | 0.00 | 0.00 | 0.00 | 84 | 1025.4 |
| 20260509115005 | 58 | 225 | 0.0 | 0.9 | 0.00 | 0.00 | 0.00 | 84 | 1025.4 |
| 20260509114509 | 58 | 225 | 0.0 | 0.9 | 0.00 | 0.00 | 0.00 | 84 | 1025.4 |
| 20260509114003 | 58 | 226 | 0.0 | 0.9 | 0.00 | 0.00 | 0.00 | 84 | 1025.4 |
| 20260509113504 | 58 | 226 | 0.0 | 0.9 | 0.00 | 0.00 | 0.00 | 84 | 1025.3 |
| 20260509113003 | 58 | 226 | 0.0 | 1.7 | 0.00 | 0.00 | 0.00 | 84 | 1025.4 |
| 20260509112503 | 58 | 226 | 0.0 | 1.7 | 0.00 | 0.00 | 0.00 | 84 | 1025.3 |
| 20260509112002 | 58 | 226 | 0.0 | 0.9 | 0.00 | 0.00 | 0.00 | 84 | 1025.3 |
| 20260509111502 | 58 | 226 | 0.0 | 1.7 | 0.00 | 0.00 | 0.00 | 84 | 1025.4 |
| 20260509111001 | 58 | 226 | 0.0 | 2.6 | 0.00 | 0.00 | 0.00 | 84 | 1025.4 |
| 20260509110601 | 58 | 226 | 0.0 | 2.6 | 0.00 | 0.00 | 0.00 | 84 | 1025.3 |
| 20260509110059 | 58 | 240 | 0.0 | 1.7 | 0.00 | 0.00 | 0.00 | 84 | 1025.2 |
| 20260509105559 | 58 | 244 | 0.0 | 0.0 | 0.00 | 0.00 | 0.00 | 84 | 1025.2 |
| 20260509105058 | 58 | 244 | 0.0 | 2.6 | 0.00 | 0.00 | 0.00 | 84 | 1025.2 |
| 20260509104558 | 59 | 244 | 0.0 | 2.6 | 0.00 | 0.00 | 0.00 | 84 | 1025.2 |
| 20260509104057 | 59 | 244 | 0.9 | 2.6 | 0.00 | 0.00 | 0.00 | 84 | 1025.2 |
| 20260509103558 | 59 | 208 | 0.9 | 1.7 | 0.00 | 0.00 | 0.00 | 84 | 1025.2 |
| 20260509103103 | 59 | 206 | 0.0 | 1.7 | 0.00 | 0.00 | 0.00 | 84 | 1025.2 |
| 20260509102556 | 59 | 206 | 0.0 | 1.7 | 0.00 | 0.00 | 0.00 | 84 | 1025.1 |
| 20260509102055 | 59 | 206 | 0.0 | 1.7 | 0.00 | 0.00 | 0.00 | 83 | 1025.1 |
| 20260509101554 | 59 | 206 | 0.9 | 1.7 | 0.00 | 0.00 | 0.00 | 83 | 1025.1 |
| 20260509101053 | 59 | 206 | 0.0 | 1.7 | 0.00 | 0.00 | 0.00 | 82 | 1025.0 |
| 20260509100552 | 59 | 206 | 0.0 | 1.7 | 0.00 | 0.00 | 0.00 | 82 | 1024.9 |
| 20260509100058 | 59 | 80 | 0.0 | 0.0 | 0.00 | 0.00 | 0.00 | 81 | 1024.9 |
| 20260509095551 | 59 | 80 | 0.0 | 0.0 | 0.00 | 0.00 | 0.00 | 80 | 1024.8 |
| 20260509095051 | 60 | 80 | 0.0 | 0.9 | 0.00 | 0.00 | 0.00 | 80 | 1024.8 |
| 20260509094550 | 60 | 80 | 0.0 | 0.9 | 0.00 | 0.00 | 0.00 | 79 | 1024.9 |
| 20260509094050 | 60 | 80 | 0.0 | 0.9 | 0.00 | 0.00 | 0.00 | 79 | 1024.9 |
| 20260509093549 | 60 | 80 | 0.0 | 0.9 | 0.00 | 0.00 | 0.00 | 79 | 1024.9 |
| 20260509093050 | 60 | 80 | 0.0 | 0.0 | 0.00 | 0.00 | 0.00 | 79 | 1024.9 |
| 20260509092552 | 60 | 80 | 0.0 | 0.9 | 0.00 | 0.00 | 0.00 | 78 | 1024.8 |
| 20260509092049 | 60 | 80 | 0.0 | 1.7 | 0.00 | 0.00 | 0.00 | 78 | 1024.8 |
| 20260509091548 | 60 | 80 | 0.0 | 1.7 | 0.00 | 0.00 | 0.00 | 78 | 1024.7 |
| 20260509091051 | 60 | 80 | 0.0 | 1.7 | 0.00 | 0.00 | 0.00 | 78 | 1024.6 |
| 20260509090548 | 60 | 80 | 0.0 | 0.0 | 0.00 | 0.00 | 0.00 | 78 | 1024.6 |
| 20260509090054 | 59 | 80 | 0.0 | 0.0 | 0.00 | 0.00 | 0.00 | 78 | 1024.6 |
| 20260509085547 | 59 | 80 | 0.0 | 1.7 | 0.00 | 0.00 | 0.00 | 78 | 1024.5 |
| 20260509085048 | 59 | 80 | 0.0 | 1.7 | 0.00 | 0.00 | 0.00 | 78 | 1024.5 |
| 20260509084548 | 59 | 80 | 0.0 | 0.9 | 0.00 | 0.00 | 0.00 | 78 | 1024.4 |
| 20260509084044 | 59 | 80 | 0.0 | 0.0 | 0.00 | 0.00 | 0.00 | 78 | 1024.3 |
| 20260509083543 | 59 | 80 | 0.0 | 0.0 | 0.00 | 0.00 | 0.00 | 77 | 1024.2 |
| 20260509083051 | 60 | 80 | 0.0 | 0.0 | 0.00 | 0.00 | 0.00 | 77 | 1024.2 |
| 20260509082543 | 60 | 80 | 0.0 | 0.0 | 0.00 | 0.00 | 0.00 | 76 | 1024.2 |
| 20260509082044 | 60 | 80 | 0.0 | 0.0 | 0.00 | 0.00 | 0.00 | 76 | 1024.1 |
| 20260509081544 | 60 | 80 | 0.0 | 0.0 | 0.00 | 0.00 | 0.00 | 76 | 1024.0 |
| 20260509081044 | 60 | 80 | 0.0 | 0.0 | 0.00 | 0.00 | 0.00 | 75 | 1024.0 |
| 20260509080543 | 61 | 80 | 0.0 | 0.9 | 0.00 | 0.00 | 0.00 | 75 | 1023.9 |
| 20260509080043 | 61 | 80 | 0.0 | 0.9 | 0.00 | 0.00 | 0.00 | 75 | 1023.9 |
| 20260509075545 | 61 | 80 | 0.0 | 0.9 | 0.00 | 0.00 | 0.00 | 75 | 1023.8 |
| 20260509075043 | 61 | 80 | 0.0 | 1.7 | 0.00 | 0.00 | 0.00 | 74 | 1023.7 |
| 20260509074546 | 61 | 74 | 0.0 | 1.7 | 0.00 | 0.00 | 0.00 | 74 | 1023.7 |
| 20260509074042 | 61 | 115 | 0.0 | 0.9 | 0.00 | 0.00 | 0.00 | 74 | 1023.6 |
| 20260509073542 | 62 | 115 | 0.0 | 1.7 | 0.00 | 0.00 | 0.00 | 74 | 1023.6 |
| 20260509073043 | 62 | 115 | 0.0 | 2.6 | 0.00 | 0.00 | 0.00 | 73 | 1023.5 |
| 20260509072544 | 62 | 65 | 0.0 | 1.7 | 0.00 | 0.00 | 0.00 | 73 | 1023.4 |
| 20260509072045 | 62 | 65 | 0.0 | 1.7 | 0.00 | 0.00 | 0.00 | 72 | 1023.4 |
| 20260509071544 | 63 | 65 | 0.0 | 3.5 | 0.00 | 0.00 | 0.00 | 72 | 1023.4 |
| 20260509071041 | 63 | 65 | 0.9 | 3.5 | 0.00 | 0.00 | 0.00 | 71 | 1023.3 |
| 20260509070542 | 63 | 68 | 0.9 | 4.3 | 0.00 | 0.00 | 0.00 | 71 | 1023.2 |
| 20260509070044 | 63 | 71 | 0.0 | 4.3 | 0.00 | 0.00 | 0.00 | 70 | 1023.1 |
| 20260509065541 | 64 | 71 | 0.0 | 2.6 | 0.00 | 0.00 | 0.00 | 70 | 1023.1 |
| 20260509065041 | 64 | 74 | 0.0 | 3.5 | 0.00 | 0.00 | 0.00 | 69 | 1023.0 |
| 20260509064541 | 64 | 94 | 0.9 | 3.5 | 0.00 | 0.00 | 0.00 | 68 | 1023.0 |
| 20260509064044 | 65 | 105 | 0.9 | 2.6 | 0.00 | 0.00 | 0.00 | 68 | 1022.9 |
| 20260509063540 | 65 | 60 | 0.9 | 7.0 | 0.00 | 0.00 | 0.00 | 67 | 1022.9 |
| 20260509063040 | 65 | 104 | 0.9 | 7.0 | 0.00 | 0.00 | 0.00 | 67 | 1022.9 |
| 20260509062540 | 65 | 63 | 0.9 | 6.1 | 0.00 | 0.00 | 0.00 | 67 | 1022.8 |
| 20260509062039 | 65 | 97 | 0.9 | 6.1 | 0.00 | 0.00 | 0.00 | 67 | 1022.8 |
| 20260509061543 | 65 | 132 | 0.9 | 3.5 | 0.00 | 0.00 | 0.00 | 67 | 1022.8 |
| 20260509061039 | 66 | 44 | 0.9 | 5.2 | 0.00 | 0.00 | 0.00 | 66 | 1022.7 |
| 20260509060539 | 66 | 128 | 0.9 | 5.2 | 0.00 | 0.00 | 0.00 | 65 | 1022.7 |
| 20260509060040 | 66 | 107 | 0.0 | 7.0 | 0.00 | 0.00 | 0.00 | 66 | 1022.7 |
| 20260509055539 | 66 | 120 | 0.9 | 7.0 | 0.00 | 0.00 | 0.00 | 65 | 1022.6 |
| 20260509055041 | 66 | 103 | 1.7 | 6.1 | 0.00 | 0.00 | 0.00 | 65 | 1022.5 |
| 20260509054556 | 66 | 144 | 0.9 | 6.1 | 0.00 | 0.00 | 0.00 | 65 | 1022.5 |
| 20260509054037 | 66 | 81 | 0.9 | 7.8 | 0.00 | 0.00 | 0.00 | 63 | 1022.5 |
| 20260509053538 | 66 | 71 | 1.7 | 7.8 | 0.00 | 0.00 | 0.00 | 62 | 1022.5 |
| 20260509053038 | 66 | 82 | 2.6 | 7.0 | 0.00 | 0.00 | 0.00 | 63 | 1022.4 |
| 20260509052538 | 66 | 94 | 1.7 | 6.1 | 0.00 | 0.00 | 0.00 | 62 | 1022.4 |
| 20260509052037 | 67 | 89 | 0.9 | 8.7 | 0.00 | 0.00 | 0.00 | 63 | 1022.4 |
| 20260509051539 | 67 | 154 | 2.6 | 8.7 | 0.00 | 0.00 | 0.00 | 61 | 1022.4 |
| 20260509051042 | 67 | 37 | 1.7 | 6.1 | 0.00 | 0.00 | 0.00 | 62 | 1022.4 |
| 20260509050538 | 67 | 65 | 1.7 | 7.8 | 0.00 | 0.00 | 0.00 | 61 | 1022.3 |
| 20260509050047 | 67 | 59 | 2.6 | 7.8 | 0.00 | 0.00 | 0.00 | 61 | 1022.3 |
| 20260509045536 | 67 | 99 | 2.6 | 8.7 | 0.00 | 0.00 | 0.00 | 61 | 1022.4 |
| 20260509045037 | 67 | 99 | 2.6 | 8.7 | 0.00 | 0.00 | 0.00 | 60 | 1022.4 |
| 20260509044535 | 67 | 93 | 1.7 | 7.8 | 0.00 | 0.00 | 0.00 | 61 | 1022.4 |
| 20260509044036 | 67 | 91 | 1.7 | 7.8 | 0.00 | 0.00 | 0.00 | 61 | 1022.3 |
| 20260509043536 | 67 | 84 | 0.9 | 7.8 | 0.00 | 0.00 | 0.00 | 60 | 1022.3 |
| 20260509043037 | 68 | 86 | 2.6 | 6.1 | 0.00 | 0.00 | 0.00 | 60 | 1022.3 |
| 20260509042535 | 67 | 82 | 1.7 | 7.0 | 0.00 | 0.00 | 0.00 | 60 | 1022.2 |
| 20260509042038 | 67 | 86 | 2.6 | 7.0 | 0.00 | 0.00 | 0.00 | 60 | 1022.2 |
| 20260509041535 | 67 | 74 | 2.6 | 7.0 | 0.00 | 0.00 | 0.00 | 59 | 1022.2 |
| 20260509041035 | 68 | 96 | 1.7 | 6.1 | 0.00 | 0.00 | 0.00 | 59 | 1022.2 |
| 20260509040536 | 68 | 87 | 1.7 | 6.1 | 0.00 | 0.00 | 0.00 | 59 | 1022.2 |
| 20260509040034 | 68 | 66 | 1.7 | 4.3 | 0.00 | 0.00 | 0.00 | 60 | 1022.2 |
| 20260509035534 | 68 | 132 | 1.7 | 7.8 | 0.00 | 0.00 | 0.00 | 60 | 1022.2 |
| 20260509035036 | 68 | 82 | 2.6 | 9.6 | 0.00 | 0.00 | 0.00 | 59 | 1022.3 |
| 20260509034533 | 68 | 107 | 1.7 | 9.6 | 0.00 | 0.00 | 0.00 | 59 | 1022.2 |
| 20260509034033 | 68 | 76 | 1.7 | 6.1 | 0.00 | 0.00 | 0.00 | 59 | 1022.2 |
| 20260509033535 | 68 | 65 | 1.7 | 7.8 | 0.00 | 0.00 | 0.00 | 58 | 1022.3 |
| 20260509033032 | 69 | 63 | 2.6 | 7.8 | 0.00 | 0.00 | 0.00 | 56 | 1022.3 |
| 20260509032533 | 69 | 80 | 1.7 | 7.0 | 0.00 | 0.00 | 0.00 | 55 | 1022.3 |
| 20260509032032 | 69 | 88 | 0.9 | 8.7 | 0.00 | 0.00 | 0.00 | 56 | 1022.4 |
| 20260509031535 | 69 | 88 | 0.9 | 7.0 | 0.00 | 0.00 | 0.00 | 55 | 1022.4 |
| 20260509031032 | 69 | 124 | 1.7 | 5.2 | 0.00 | 0.00 | 0.00 | 55 | 1022.4 |
| 20260509030531 | 69 | 86 | 1.7 | 6.1 | 0.00 | 0.00 | 0.00 | 55 | 1022.4 |
| 20260509030037 | 70 | 40 | 1.7 | 5.2 | 0.00 | 0.00 | 0.00 | 52 | 1022.6 |
| 20260509025630 | 70 | 146 | 1.7 | 5.2 | 0.00 | 0.00 | 0.00 | 52 | 1022.6 |
| 20260509025030 | 69 | 92 | 1.7 | 5.2 | 0.00 | 0.00 | 0.00 | 50 | 1022.6 |
| 20260509024536 | 69 | 178 | 0.9 | 3.5 | 0.00 | 0.00 | 0.00 | 52 | 1022.7 |
| 20260509024027 | 69 | 99 | 0.9 | 6.1 | 0.00 | 0.00 | 0.00 | 53 | 1022.7 |
| 20260509023527 | 69 | 76 | 1.7 | 6.1 | 0.00 | 0.00 | 0.00 | 53 | 1022.8 |
| 20260509023026 | 69 | 146 | 1.7 | 6.1 | 0.00 | 0.00 | 0.00 | 51 | 1022.9 |
| 20260509022525 | 69 | 127 | 0.9 | 6.1 | 0.00 | 0.00 | 0.00 | 52 | 1023.0 |
| 20260509022024 | 69 | 137 | 1.7 | 7.0 | 0.00 | 0.00 | 0.00 | 52 | 1023.0 |
| 20260509021523 | 69 | 107 | 1.7 | 7.0 | 0.00 | 0.00 | 0.00 | 53 | 1023.1 |
| 20260509021022 | 68 | 144 | 0.9 | 6.1 | 0.00 | 0.00 | 0.00 | 53 | 1023.2 |
| 20260509020521 | 68 | 103 | 1.7 | 6.1 | 0.00 | 0.00 | 0.00 | 53 | 1023.2 |
| 20260509020020 | 68 | 217 | 1.7 | 5.2 | 0.00 | 0.00 | 0.00 | 53 | 1023.3 |
| 20260509015519 | 68 | 218 | 0.9 | 6.1 | 0.00 | 0.00 | 0.00 | 54 | 1023.3 |
| 20260509015018 | 67 | 157 | 2.6 | 6.1 | 0.00 | 0.00 | 0.00 | 55 | 1023.4 |
| 20260509014518 | 67 | 257 | 1.7 | 6.1 | 0.00 | 0.00 | 0.00 | 56 | 1023.4 |
| 20260509014016 | 67 | 185 | 2.6 | 7.0 | 0.00 | 0.00 | 0.00 | 55 | 1023.5 |
| 20260509013516 | 67 | 199 | 3.5 | 7.0 | 0.00 | 0.00 | 0.00 | 55 | 1023.6 |
| 20260509013023 | 67 | 182 | 1.7 | 6.1 | 0.00 | 0.00 | 0.00 | 56 | 1023.6 |
| 20260509012515 | 67 | 153 | 0.9 | 7.8 | 0.00 | 0.00 | 0.00 | 56 | 1023.7 |
| 20260509012013 | 66 | 215 | 2.6 | 7.8 | 0.00 | 0.00 | 0.00 | 55 | 1023.7 |
| 20260509011513 | 67 | 177 | 2.6 | 7.8 | 0.00 | 0.00 | 0.00 | 56 | 1023.8 |
| 20260509011016 | 66 | 123 | 1.7 | 7.8 | 0.00 | 0.00 | 0.00 | 57 | 1023.7 |
| 20260509010509 | 66 | 192 | 2.6 | 7.0 | 0.00 | 0.00 | 0.00 | 57 | 1023.8 |
| 20260509010014 | 66 | 145 | 1.7 | 6.1 | 0.00 | 0.00 | 0.00 | 58 | 1023.8 |
| 20260509005509 | 66 | 143 | 1.7 | 6.1 | 0.00 | 0.00 | 0.00 | 57 | 1024.0 |
| 20260509005006 | 66 | 165 | 1.7 | 6.1 | 0.00 | 0.00 | 0.00 | 58 | 1024.0 |
| 20260509004505 | 65 | 209 | 2.6 | 6.1 | 0.00 | 0.00 | 0.00 | 59 | 1024.0 |
| 20260509004004 | 65 | 216 | 1.7 | 7.0 | 0.00 | 0.00 | 0.00 | 59 | 1024.1 |
| 20260509003503 | 65 | 157 | 2.6 | 7.0 | 0.00 | 0.00 | 0.00 | 59 | 1024.1 |
| 20260509003002 | 64 | 139 | 2.6 | 7.0 | 0.00 | 0.00 | 0.00 | 60 | 1024.1 |
| 20260509002501 | 64 | 194 | 3.5 | 6.1 | 0.00 | 0.00 | 0.00 | 59 | 1024.1 |
| 20260509002001 | 65 | 172 | 2.6 | 7.0 | 0.00 | 0.00 | 0.00 | 60 | 1024.2 |
| 20260509001600 | 64 | 210 | 2.6 | 7.0 | 0.00 | 0.00 | 0.00 | 61 | 1024.2 |
| 20260509001058 | 64 | 203 | 2.6 | 6.1 | 0.00 | 0.00 | 0.00 | 61 | 1024.2 |
| 20260509000558 | 64 | 120 | 1.7 | 6.1 | 0.00 | 0.00 | 0.00 | 62 | 1024.2 |
| 20260509000108 | 64 | 138 | 1.7 | 4.3 | 0.00 | 0.00 | 0.00 | 63 | 1024.2 |
| 20260508235557 | 63 | 154 | 1.7 | 6.1 | 0.00 | 0.00 | 0.00 | 64 | 1024.3 |
| 20260508235056 | 63 | 196 | 1.7 | 6.1 | 0.00 | 0.00 | 0.00 | 64 | 1024.3 |
| 20260508234556 | 63 | 196 | 1.7 | 4.3 | 0.00 | 0.00 | 0.00 | 65 | 1024.3 |
| 20260508234051 | 62 | 221 | 1.7 | 4.3 | 0.00 | 0.00 | 0.00 | 66 | 1024.3 |
| 20260508233550 | 62 | 207 | 1.7 | 3.5 | 0.00 | 0.00 | 0.00 | 67 | 1024.3 |
| 20260508233050 | 62 | 281 | 0.9 | 6.1 | 0.00 | 0.00 | 0.00 | 67 | 1024.3 |
| 20260508232547 | 61 | 250 | 2.6 | 6.1 | 0.00 | 0.00 | 0.00 | 67 | 1024.2 |
| 20260508232046 | 61 | 275 | 1.7 | 6.1 | 0.00 | 0.00 | 0.00 | 67 | 1024.2 |
| 20260508231550 | 61 | 256 | 1.7 | 6.1 | 0.00 | 0.00 | 0.00 | 68 | 1024.2 |
| 20260508231045 | 60 | 259 | 2.6 | 6.1 | 0.00 | 0.00 | 0.00 | 67 | 1024.2 |
| 20260508230544 | 60 | 229 | 2.6 | 4.3 | 0.00 | 0.00 | 0.00 | 68 | 1024.2 |
| 20260508230043 | 60 | 246 | 2.6 | 7.0 | 0.00 | 0.00 | 0.00 | 68 | 1024.2 |
| 20260508225542 | 60 | 268 | 2.6 | 7.0 | 0.00 | 0.00 | 0.00 | 68 | 1024.3 |
| 20260508225041 | 59 | 244 | 1.7 | 4.3 | 0.00 | 0.00 | 0.00 | 69 | 1024.2 |
| 20260508224540 | 59 | 236 | 2.6 | 4.3 | 0.00 | 0.00 | 0.00 | 70 | 1024.2 |
| 20260508224037 | 59 | 285 | 2.6 | 6.1 | 0.00 | 0.00 | 0.00 | 71 | 1024.1 |
| 20260508223537 | 58 | 260 | 2.6 | 6.1 | 0.00 | 0.00 | 0.00 | 71 | 1024.1 |
| 20260508223037 | 58 | 304 | 2.6 | 5.2 | 0.00 | 0.00 | 0.00 | 72 | 1024.1 |
| 20260508222533 | 57 | 272 | 2.6 | 5.2 | 0.00 | 0.00 | 0.00 | 72 | 1024.0 |
| 20260508222032 | 57 | 254 | 1.7 | 5.2 | 0.00 | 0.00 | 0.00 | 74 | 1024.0 |
| 20260508221536 | 56 | 266 | 1.7 | 5.2 | 0.00 | 0.00 | 0.00 | 74 | 1023.9 |
| 20260508221033 | 56 | 268 | 1.7 | 3.5 | 0.00 | 0.00 | 0.00 | 74 | 1023.9 |
| 20260508220532 | 55 | 299 | 1.7 | 4.3 | 0.00 | 0.00 | 0.00 | 74 | 1023.9 |
| 20260508220036 | 55 | 272 | 1.7 | 3.5 | 0.00 | 0.00 | 0.00 | 75 | 1023.7 |
| 20260508215529 | 55 | 280 | 1.7 | 3.5 | 0.00 | 0.00 | 0.00 | 75 | 1023.7 |
| 20260508215029 | 54 | 315 | 1.7 | 3.5 | 0.00 | 0.00 | 0.00 | 76 | 1023.7 |
| 20260508214528 | 54 | 280 | 1.7 | 3.5 | 0.00 | 0.00 | 0.00 | 76 | 1023.7 |
| 20260508214027 | 54 | 298 | 1.7 | 3.5 | 0.00 | 0.00 | 0.00 | 76 | 1023.6 |
| 20260508213526 | 53 | 293 | 1.7 | 3.5 | 0.00 | 0.00 | 0.00 | 77 | 1023.5 |
| 20260508213033 | 53 | 286 | 1.7 | 3.5 | 0.00 | 0.00 | 0.00 | 77 | 1023.5 |
| 20260508212526 | 53 | 302 | 1.7 | 3.5 | 0.00 | 0.00 | 0.00 | 77 | 1023.5 |
| 20260508212028 | 53 | 306 | 1.7 | 3.5 | 0.00 | 0.00 | 0.00 | 77 | 1023.4 |
| 20260508211526 | 53 | 315 | 1.7 | 4.3 | 0.00 | 0.00 | 0.00 | 77 | 1023.3 |
| 20260508211024 | 53 | 311 | 1.7 | 3.5 | 0.00 | 0.00 | 0.00 | 77 | 1023.2 |
| 20260508210523 | 53 | 296 | 1.7 | 2.6 | 0.00 | 0.00 | 0.00 | 77 | 1023.2 |
| 20260508210022 | 53 | 263 | 0.9 | 2.6 | 0.00 | 0.00 | 0.00 | 77 | 1023.1 |
| 20260508205521 | 53 | 284 | 0.9 | 2.6 | 0.00 | 0.00 | 0.00 | 77 | 1023.0 |
| 20260508205022 | 53 | 286 | 0.9 | 2.6 | 0.00 | 0.00 | 0.00 | 79 | 1022.9 |
| 20260508204521 | 53 | 286 | 0.9 | 2.6 | 0.00 | 0.00 | 0.00 | 79 | 1022.8 |
| 20260508204017 | 53 | 286 | 0.9 | 2.6 | 0.00 | 0.00 | 0.00 | 79 | 1022.8 |
| 20260508203517 | 53 | 214 | 0.9 | 1.7 | 0.00 | 0.00 | 0.00 | 79 | 1022.8 |
| 20260508203017 | 53 | 213 | 0.0 | 1.7 | 0.00 | 0.00 | 0.00 | 78 | 1022.7 |
| 20260508202515 | 53 | 213 | 0.0 | 1.7 | 0.00 | 0.00 | 0.00 | 77 | 1022.7 |
| 20260508202015 | 53 | 213 | 0.0 | 1.7 | 0.00 | 0.00 | 0.00 | 77 | 1022.6 |
| 20260508201516 | 54 | 213 | 0.0 | 1.7 | 0.00 | 0.00 | 0.00 | 77 | 1022.6 |
| 20260508201014 | 53 | 213 | 0.0 | 1.7 | 0.00 | 0.00 | 0.00 | 77 | 1022.5 |
| 20260508200515 | 53 | 213 | 0.0 | 0.9 | 0.00 | 0.00 | 0.00 | 77 | 1022.5 |
| 20260508200013 | 54 | 213 | 0.0 | 0.9 | 0.00 | 0.00 | 0.00 | 76 | 1022.4 |
| 20260508195513 | 54 | 213 | 0.0 | 0.9 | 0.00 | 0.00 | 0.00 | 76 | 1022.4 |
| 20260508195011 | 54 | 213 | 0.0 | 0.9 | 0.00 | 0.00 | 0.00 | 76 | 1022.3 |
| 20260508194512 | 54 | 213 | 0.0 | 0.9 | 0.00 | 0.00 | 0.00 | 76 | 1022.2 |
| 20260508194009 | 54 | 213 | 0.0 | 2.6 | 0.00 | 0.00 | 0.00 | 75 | 1022.1 |
| 20260508193508 | 54 | 213 | 0.0 | 2.6 | 0.00 | 0.00 | 0.00 | 75 | 1022.0 |
| 20260508193008 | 54 | 213 | 0.0 | 2.6 | 0.00 | 0.00 | 0.00 | 75 | 1022.0 |
| 20260508192508 | 54 | 270 | 0.9 | 1.7 | 0.00 | 0.00 | 0.00 | 74 | 1021.9 |
| 20260508192010 | 54 | 271 | 0.0 | 1.7 | 0.00 | 0.00 | 0.00 | 74 | 1021.9 |
| 20260508191507 | 54 | 271 | 0.0 | 2.6 | 0.00 | 0.00 | 0.00 | 74 | 1021.9 |
| 20260508191006 | 54 | 273 | 0.9 | 2.6 | 0.00 | 0.00 | 0.00 | 74 | 1021.9 |
| 20260508190506 | 54 | 273 | 0.9 | 2.6 | 0.00 | 0.00 | 0.00 | 74 | 1021.8 |
| 20260508190006 | 54 | 276 | 0.9 | 1.7 | 0.00 | 0.00 | 0.00 | 74 | 1021.8 |
| 20260508185505 | 54 | 276 | 0.9 | 1.7 | 0.00 | 0.00 | 0.00 | 74 | 1021.8 |
| 20260508185005 | 54 | 276 | 0.9 | 1.7 | 0.00 | 0.00 | 0.00 | 73 | 1021.8 |
| 20260508184504 | 55 | 276 | 0.9 | 2.6 | 0.00 | 0.00 | 0.00 | 73 | 1021.7 |
| 20260508184003 | 55 | 278 | 0.9 | 3.5 | 0.00 | 0.00 | 0.00 | 73 | 1021.7 |
| 20260508183503 | 55 | 290 | 1.7 | 3.5 | 0.00 | 0.00 | 0.00 | 73 | 1021.7 |
| 20260508183004 | 55 | 280 | 1.7 | 3.5 | 0.00 | 0.00 | 0.00 | 73 | 1021.7 |
| 20260508182504 | 55 | 258 | 1.7 | 3.5 | 0.00 | 0.00 | 0.00 | 73 | 1021.7 |
| 20260508182003 | 55 | 286 | 1.7 | 3.5 | 0.00 | 0.00 | 0.00 | 73 | 1021.7 |
| 20260508181506 | 55 | 286 | 1.7 | 2.6 | 0.00 | 0.00 | 0.00 | 73 | 1021.7 |
| 20260508181002 | 55 | 287 | 0.9 | 2.6 | 0.00 | 0.00 | 0.00 | 72 | 1021.7 |
| 20260508180503 | 55 | 287 | 0.9 | 2.6 | 0.00 | 0.00 | 0.00 | 72 | 1021.6 |
| 20260508180005 | 55 | 287 | 0.9 | 3.5 | 0.00 | 0.00 | 0.00 | 72 | 1021.5 |
| 20260508175501 | 55 | 287 | 0.9 | 3.5 | 0.00 | 0.00 | 0.00 | 71 | 1021.6 |
| 20260508175101 | 55 | 287 | 1.7 | 2.6 | 0.00 | 0.00 | 0.00 | 71 | 1021.6 |
| 20260508174609 | 55 | 288 | 1.7 | 3.5 | 0.00 | 0.00 | 0.00 | 71 | 1021.5 |
| 20260508174101 | 55 | 283 | 1.7 | 4.3 | 0.00 | 0.00 | 0.00 | 71 | 1021.5 |
| 20260508173559 | 55 | 279 | 2.6 | 4.3 | 0.00 | 0.00 | 0.00 | 72 | 1021.4 |
| 20260508173058 | 55 | 284 | 1.7 | 3.5 | 0.00 | 0.00 | 0.00 | 72 | 1021.4 |
| 20260508172558 | 55 | 275 | 1.7 | 3.5 | 0.00 | 0.00 | 0.00 | 72 | 1021.5 |
| 20260508172058 | 55 | 273 | 1.7 | 3.5 | 0.00 | 0.00 | 0.00 | 73 | 1021.4 |
| 20260508171558 | 55 | 279 | 1.7 | 3.5 | 0.00 | 0.00 | 0.00 | 74 | 1021.4 |
| 20260508171057 | 55 | 280 | 1.7 | 2.6 | 0.00 | 0.00 | 0.00 | 73 | 1021.4 |
| 20260508170557 | 55 | 290 | 0.9 | 3.5 | 0.00 | 0.00 | 0.00 | 73 | 1021.4 |
| 20260508170058 | 55 | 277 | 0.9 | 3.5 | 0.00 | 0.00 | 0.00 | 72 | 1021.3 |
| 20260508165556 | 55 | 248 | 0.9 | 2.6 | 0.00 | 0.00 | 0.00 | 71 | 1021.3 |
| 20260508165056 | 55 | 243 | 1.7 | 3.5 | 0.00 | 0.00 | 0.00 | 70 | 1021.3 |